Weather past 2 weeks in Jamestown, Saint Helena

Now
59 °F

Cool.


Feels Like: 56 °F
Forecast: 68 / 70 °F
Wind: 21 mph from Southeast

Location: Saint Helena Island

Current Time: Jul 29, 2014 at 12:33:04 AM

Latest Report: Jul 28, 2014 at 11:00 PM


Visibility: N/A

Pressure: 30.15 "Hg

Humidity: 87%

Dew point: 56 °F

Location of JamestownLocation

Historic Weather in Jamestown — Graph

°F

Jamestown temperature yesterday

Maximum temperature yesterday: 62 °F (at 12:00 PM)
Minimum temperature yesterday: 59 °F (at 10:00 PM)
Average temperature yesterday: 60 °F

Past Weeks' High & Low Weather Summary

 TemperatureHumidityPressure
High64 °F (Jul 23, 3:00 PM)100% (Jul 14, 11:00 PM)30.29 "Hg (Jul 14, 11:00 PM)
Low56 °F (Jul 16, 3:00 AM)65% (Jul 28, 4:00 AM)30.11 "Hg (Jul 14, 5:00 AM)
Average60 °F89%30.19 "Hg
* Reported Jul 13 11:00 PM — Jul 28 11:00 PM, Jamestown, Weather by CustomWeather, © 2014

Note: Actual official high and low records may vary slightly from our data, if they occured in-between our weather recording intervals... More about our weather records

Advertising

Jamestown weather history for previous 24 hours

 ConditionsComfort  
Time TempWeatherWind HumidityBarometerVisibility
11:00 PM
Jul 28
59 °FCool.21 mph87%30.15 "HgN/A
10:00 PM59 °FCool.23 mph89%30.15 "HgN/A
9:00 PM59 °FCool.23 mph87%30.15 "HgN/A
8:00 PM59 °FCool.16 mph94%30.15 "HgN/A
7:00 PM60 °FCool.21 mph93%30.15 "HgN/A
5:00 PM62 °FCool.17 mph92%30.11 "HgN/A
4:00 PM61 °FCool.17 mph87%30.11 "HgN/A
3:00 PM61 °FLow clouds.21 mph92%30.11 "Hg2 mi
2:00 PM60 °FFog.20 mph94%30.14 "Hg2 mi
1:00 PM61 °FSprinkles. Low clouds.17 mph92%30.16 "Hg2 mi
12:00 PM62 °FLow clouds.21 mph88%30.18 "Hg1 mi
11:00 AM60 °FFog.20 mph95%30.20 "Hg2 mi
10:00 AM61 °FFog.18 mph84%30.20 "Hg3 mi
9:00 AM61 °FSprinkles. Low clouds.20 mph82%30.20 "Hg3 mi
8:00 AM60 °FCool.18 mph82%30.19 "HgN/A
7:00 AM60 °FCool.21 mph83%30.18 "HgN/A
5:00 AM60 °FCool.22 mph87%30.15 "HgN/A
4:00 AM60 °FCool.23 mph65%30.15 "HgN/A
3:00 AM60 °FCool.21 mph78%30.16 "HgN/A
2:00 AM60 °FCool.23 mph84%30.18 "HgN/A
1:00 AM60 °FCool.18 mph91%30.20 "HgN/A
Weather by CustomWeather, © 2014

See weather overviewHow to use our weather pages